XJS G (45611 NORAD) Tracking and Keplerian Element Data

This shows tracking and keplerian element data for the satellite.

Feedback or suggestion? Click here.




ElementValue
Catalog45611
NameXJS G
Epoch Orbit527
Epoch Day185.48980098
Epoch Year2020
RAAN308.1107
Inclination35.0353
Eccentricity0.0013991
Argument of Perigee257.4522
Mean Anonmoly185.4103
Mean Motion15.29881331
Decay Rate5.04E-06
L11 45611U 20032A 20185.48980098 .00000504 00000-0 18325-4 0 9998
L22 45611 35.0353 308.1107 0013991 257.4522 185.4103 15.29881331 5275

Live tracking and technical data element details for XJS G (NORAD 45611). XJS G can be tracked NOW for your location showing map with azimuth and elevation plus other details from your city location.

Track the satellite on the map from your city or location and see movement details for azimuth, elevation, latitude, longitude, range, height, and movement on the map or in text.







IsCatalogInMostPopularTable: catalog: 45611, numindb: 12
Update: records affected: 1



GetName: 45611 XJS G

Hit Count: updated at: Sat, 04 Jul 2020 02:58:00 GMT